Regional Weather Roundup
Issued by NWS

Home | Current Version | Previous Version | Text Only | Print | Product List | Glossary Off
Versions: 1 2 3 4 5 6 7 8 9 10 11 12 13 14 15 16 17 18 19 20 21 22 23 24 25 26 27 28 29 30 31 32 33 34 35 36 37 38 39 40 41 42 43 44 45 46 47 48 49 50

000
ASUS45 KBOU 211707
RWRCO

WEATHER ROUNDUP FOR COLORADO
NATIONAL WEATHER SERVICE DENVER/BOULDER CO
1100 AM MDT THU AUG 21 2014

NOTE: "FAIR" INDICATES FEW OR NO CLOUDS BELOW 12000 FEET WITH NO
SIGNIFICANT WEATHER AND/OR OBSTRUCTIONS TO VISIBILITY.

COZ001>005-013-030-031-211800-
...NORTHWEST COLORADO...

CITY           SKY/WX    TMP DP  RH WIND       PRES   REMARKS
CRAIG          MOSUNNY   69  51  52 VRB3      30.22S
HAYDEN         MOSUNNY   64  46  52 CALM      30.24S
MEEKER         MOSUNNY   69  49  48 SW3       30.23S
MOUNT WERNER   NOT AVBL
STEAMBOAT SPGS MOSUNNY   63  48  58 SW5       30.26S
WALDEN         MOSUNNY   61  43  51 SW9G16    30.30F
$$

COZ006>008-011-211800-
...WEST CENTRAL VALLEYS...

CITY           SKY/WX    TMP DP  RH WIND       PRES   REMARKS
GRAND JUNCTION MOSUNNY   71  48  43 CALM      30.15F
MONTROSE       MOSUNNY   74  46  36 VRB5      30.22F
EAGLE          MOSUNNY   66  48  52 CALM      30.27F
RIFLE          PTSUNNY   69  51  52 NW3       30.20S
DELTA          MOSUNNY   74  46  37 CALM      30.19F
NUCLA          MOSUNNY   68  45  42 CALM      30.26F
$$

COZ017>023-064>068-211800-
...SOUTHWEST COLORADO...

CITY           SKY/WX    TMP DP  RH WIND       PRES   REMARKS
DURANGO        SUNNY     71  37  28 CALM      30.26R
CORTEZ         SUNNY     76  40  27 VRB5      30.21F
PAGOSA SPRINGS SUNNY     68  37  31 S5        30.33R
TELLURIDE      MOSUNNY   63  30  29 CALM      30.41S
WOLF CREEK PAS NOT AVBL
$$

COZ009-010-012-014-032>034-037-058>063-211800-
...CENTRAL COLORADO...

CITY           SKY/WX    TMP DP  RH WIND       PRES   REMARKS
ASPEN          SUNNY     67  41  38 NW8       30.30S
BUENA VISTA    PTSUNNY   65  37  35 SE7       30.32S
COPPER MTN     MOSUNNY   54  39  58 W15       30.57R
BERTHOUD PASS  PTSUNNY   41  41 100 NW13G22   30.60R
COTTONWOOD PAS PTSUNNY   64  30  27 CALM      30.43R
GUNNISON       SUNNY     63  41  45 CALM      30.35F
KREMMLING      MOSUNNY   63  46  55 SE5       30.31R
LEADVILLE      MOSUNNY   58  36  43 N12G20    30.42R
MONARCH PASS   MOSUNNY   45  36  70 W16G25    30.67R
SALIDA         PTSUNNY   70  42  35 N8        30.35F
SUNLIGHT       PTSUNNY   55  45  67 CALM      30.52R
WILKERSON PASS NOT AVBL
$$

COZ069>075-211800-
...SAN LUIS VALLEY/SANGRE DE CRISTO MOUNTAINS...

CITY           SKY/WX    TMP DP  RH WIND       PRES   REMARKS
ALAMOSA        SUNNY     70  38  31 VRB6      30.30F
LA VETA PASS   NOT AVBL
SAGUACHE       MOSUNNY   68  37  32 NW12      30.34R
$$

COZ035-036-038>040-211800-
...NORTHERN COLORADO FRONT RANGE...

CITY           SKY/WX    TMP DP  RH WIND       PRES   REMARKS
DENVER INTL AP MOSUNNY   77  47  34 MISG      30.12R
DMNS CITY PARK   N/A     78  46  32 SW2       30.11S
AURORA         MOSUNNY   75  47  37 VRB3      30.14R
FRONT RANGE AP NOT AVBL
ERIE MUNI ARPT MOSUNNY   78  43  28 NE5       30.09F
BOULDER MUN AP MOSUNNY   77  52  41 SE3       30.10S
CENTENNIAL     PTSUNNY   75  44  33 W5        30.15R
BROOMFIELD     PTSUNNY   77  46  33 NE6       30.13S
FORT COLLINS   SUNNY     79  48  34 SE8       30.09S
LONGMONT       SUNNY     82  49  31 E5        30.10S
$$

COZ041-046-047-076>085-087-088-211800-
...PIKES PEAK/PALMER DIVIDE AND SOUTHERN FOOTHILLS...

CITY           SKY/WX    TMP DP  RH WIND       PRES   REMARKS
COLO. SPRINGS  MOSUNNY   76  49  38 S9        30.19R
A. F. ACADEMY  MOSUNNY   76  46  34 S13       30.19S
ELLICOTT       MOSUNNY   76  48  37 S7        30.17R
FALCON         MOSUNNY   74  48  38 S8        30.24R
FORT CARSON    MOSUNNY   77  48  36 SE9       30.16R
LIMON          SUNNY     79  46  31 CALM      30.12S
MONUMENT HILL  MOSUNNY   73  43  33 NW8       30.22R
TRINIDAD       SUNNY     76  50  40 VRB3      30.16S
$$

COZ042>045-048>051-090-091-211800-
...NORTHEAST COLORADO...

CITY           SKY/WX    TMP DP  RH WIND       PRES   REMARKS
GREELEY ARPT   SUNNY     79  48  34 CALM      30.09R
AKRON          SUNNY     80  49  33 NW15G30   30.07R
BURLINGTON     MOSUNNY   85  49  28 N14G20    30.04R
WRAY             N/A     86  46  25 NW14G22   30.00S
STERLING       SUNNY     86  52  30 N9        30.01S
HOLYOKE        NOT AVBL
FORT MORGAN    SUNNY     83  42  24 NW9       30.07S
$$

COZ086-089-092>099-211800-
...SOUTHEAST COLORADO...

CITY           SKY/WX    TMP DP  RH WIND       PRES   REMARKS
PUEBLO         SUNNY     82  50  32 VRB5      30.08S
LA JUNTA       NOT AVBL
LAMAR          NOT AVBL
SPRINGFIELD    NOT AVBL
$$


USA.gov is the U.S. government's official web portal to all federal, state and local government web resources and services.